﻿測定場所 (Monitoring sites),日付 (Measurement date),時間 (Measurement time),線量率 最大値 (max) μGy/h,線量率 最小値 (min) μGy/h,線量率 平均値 (average) μGy/h,
新宿 (Shinjuku),2011-07-17,23:00～23:59,0.0594,0.0529,0.0570,
新宿 (Shinjuku),2011-07-17,22:00～22:59,0.0593,0.0544,0.0572,
新宿 (Shinjuku),2011-07-17,21:00～21:59,0.0595,0.0555,0.0573,
新宿 (Shinjuku),2011-07-17,20:00～20:59,0.0594,0.0542,0.0574,
新宿 (Shinjuku),2011-07-17,19:00～19:59,0.0600,0.0548,0.0570,
新宿 (Shinjuku),2011-07-17,18:00～18:59,0.0595,0.0549,0.0572,
新宿 (Shinjuku),2011-07-17,17:00～17:59,0.0603,0.0548,0.0573,
新宿 (Shinjuku),2011-07-17,16:00～16:59,0.0598,0.0542,0.0574,
新宿 (Shinjuku),2011-07-17,15:00～15:59,0.0602,0.0539,0.0572,
新宿 (Shinjuku),2011-07-17,14:00～14:59,0.0599,0.0551,0.0575,
新宿 (Shinjuku),2011-07-17,13:00～13:59,0.0602,0.0556,0.0578,
新宿 (Shinjuku),2011-07-17,12:00～12:59,0.0604,0.0545,0.0575,
新宿 (Shinjuku),2011-07-17,11:00～11:59,0.0611,0.0548,0.0575,
新宿 (Shinjuku),2011-07-17,10:00～10:59,0.0598,0.0550,0.0579,
新宿 (Shinjuku),2011-07-17,09:00～09:59,0.0607,0.0555,0.0577,
新宿 (Shinjuku),2011-07-17,08:00～08:59,0.0603,0.0550,0.0582,
新宿 (Shinjuku),2011-07-17,07:00～07:59,0.0610,0.0558,0.0580,
新宿 (Shinjuku),2011-07-17,06:00～06:59,0.0610,0.0550,0.0578,
新宿 (Shinjuku),2011-07-17,05:00～05:59,0.0596,0.0552,0.0576,
新宿 (Shinjuku),2011-07-17,04:00～04:59,0.0604,0.0546,0.0575,
新宿 (Shinjuku),2011-07-17,03:00～03:59,0.0607,0.0548,0.0574,
新宿 (Shinjuku),2011-07-17,02:00～02:59,0.0597,0.0543,0.0571,
新宿 (Shinjuku),2011-07-17,01:00～01:59,0.0598,0.0553,0.0572,
新宿 (Shinjuku),2011-07-17,00:00～00:59,0.0595,0.0546,0.0569,
新宿 (Shinjuku),2011-07-16,23:00～23:59,0.0614,0.0547,0.0573,
新宿 (Shinjuku),2011-07-16,22:00～22:59,0.0600,0.0548,0.0571,
新宿 (Shinjuku),2011-07-16,21:00～21:59,0.0603,0.0544,0.0571,
新宿 (Shinjuku),2011-07-16,20:00～20:59,0.0597,0.0549,0.0570,
新宿 (Shinjuku),2011-07-16,19:00～19:59,0.0596,0.0545,0.0570,
新宿 (Shinjuku),2011-07-16,18:00～18:59,0.0596,0.0545,0.0571,
新宿 (Shinjuku),2011-07-16,17:00～17:59,0.0593,0.0551,0.0574,
新宿 (Shinjuku),2011-07-16,16:00～16:59,0.0600,0.0550,0.0575,
新宿 (Shinjuku),2011-07-16,15:00～15:59,0.0596,0.0540,0.0576,
新宿 (Shinjuku),2011-07-16,14:00～14:59,0.0602,0.0555,0.0577,
新宿 (Shinjuku),2011-07-16,13:00～13:59,0.0607,0.0558,0.0579,
新宿 (Shinjuku),2011-07-16,12:00～12:59,0.0600,0.0555,0.0578,
新宿 (Shinjuku),2011-07-16,11:00～11:59,0.0606,0.0551,0.0580,
新宿 (Shinjuku),2011-07-16,10:00～10:59,0.0606,0.0552,0.0579,
新宿 (Shinjuku),2011-07-16,09:00～09:59,0.0611,0.0556,0.0582,
新宿 (Shinjuku),2011-07-16,08:00～08:59,0.0602,0.0560,0.0583,
新宿 (Shinjuku),2011-07-16,07:00～07:59,0.0603,0.0562,0.0580,
新宿 (Shinjuku),2011-07-16,06:00～06:59,0.0602,0.0551,0.0579,
新宿 (Shinjuku),2011-07-16,05:00～05:59,0.0600,0.0545,0.0576,
新宿 (Shinjuku),2011-07-16,04:00～04:59,0.0593,0.0544,0.0569,
新宿 (Shinjuku),2011-07-16,03:00～03:59,0.0600,0.0548,0.0573,
新宿 (Shinjuku),2011-07-16,02:00～02:59,0.0599,0.0544,0.0572,
新宿 (Shinjuku),2011-07-16,01:00～01:59,0.0592,0.0548,0.0572,
新宿 (Shinjuku),2011-07-16,00:00～00:59,0.0596,0.0543,0.0571,
新宿 (Shinjuku),2011-07-15,23:00～23:59,0.0610,0.0544,0.0575,
新宿 (Shinjuku),2011-07-15,22:00～22:59,0.0593,0.0537,0.0570,
新宿 (Shinjuku),2011-07-15,21:00～21:59,0.0599,0.0550,0.0575,
新宿 (Shinjuku),2011-07-15,20:00～20:59,0.0596,0.0553,0.0573,
新宿 (Shinjuku),2011-07-15,19:00～19:59,0.0604,0.0551,0.0571,
新宿 (Shinjuku),2011-07-15,18:00～18:59,0.0599,0.0543,0.0572,
新宿 (Shinjuku),2011-07-15,17:00～17:59,0.0610,0.0552,0.0574,
新宿 (Shinjuku),2011-07-15,16:00～16:59,0.0601,0.0544,0.0575,
新宿 (Shinjuku),2011-07-15,15:00～15:59,0.0600,0.0548,0.0576,
新宿 (Shinjuku),2011-07-15,14:00～14:59,0.0615,0.0548,0.0581,
新宿 (Shinjuku),2011-07-15,13:00～13:59,0.0597,0.0552,0.0575,
新宿 (Shinjuku),2011-07-15,12:00～12:59,0.0608,0.0546,0.0580,
新宿 (Shinjuku),2011-07-15,11:00～11:59,0.0606,0.0557,0.0578,
新宿 (Shinjuku),2011-07-15,10:00～10:59,0.0605,0.0551,0.0581,
新宿 (Shinjuku),2011-07-15,09:00～09:59,0.0603,0.0557,0.0581,
新宿 (Shinjuku),2011-07-15,08:00～08:59,0.0608,0.0551,0.0579,
新宿 (Shinjuku),2011-07-15,07:00～07:59,0.0608,0.0548,0.0581,
新宿 (Shinjuku),2011-07-15,06:00～06:59,0.0613,0.0557,0.0579,
新宿 (Shinjuku),2011-07-15,05:00～05:59,0.0606,0.0554,0.0577,
新宿 (Shinjuku),2011-07-15,04:00～04:59,0.0594,0.0549,0.0573,
新宿 (Shinjuku),2011-07-15,03:00～03:59,0.0599,0.0552,0.0572,
新宿 (Shinjuku),2011-07-15,02:00～02:59,0.0601,0.0541,0.0570,
新宿 (Shinjuku),2011-07-15,01:00～01:59,0.0603,0.0547,0.0575,
新宿 (Shinjuku),2011-07-15,00:00～00:59,0.0602,0.0551,0.0572,
新宿 (Shinjuku),2011-07-14,23:00～23:59,0.0603,0.0544,0.0572,
新宿 (Shinjuku),2011-07-14,22:00～22:59,0.0607,0.0546,0.0570,
新宿 (Shinjuku),2011-07-14,21:00～21:59,0.0604,0.0552,0.0573,
新宿 (Shinjuku),2011-07-14,20:00～20:59,0.0597,0.0551,0.0573,
新宿 (Shinjuku),2011-07-14,19:00～19:59,0.0601,0.0551,0.0572,
新宿 (Shinjuku),2011-07-14,18:00～18:59,0.0600,0.0552,0.0577,
新宿 (Shinjuku),2011-07-14,17:00～17:59,0.0605,0.0551,0.0573,
新宿 (Shinjuku),2011-07-14,16:00～16:59,0.0592,0.0538,0.0569,
新宿 (Shinjuku),2011-07-14,15:00～15:59,0.0605,0.0551,0.0575,
新宿 (Shinjuku),2011-07-14,14:00～14:59,0.0605,0.0555,0.0574,
新宿 (Shinjuku),2011-07-14,13:00～13:59,0.0601,0.0531,0.0577,
新宿 (Shinjuku),2011-07-14,12:00～12:59,0.0615,0.0551,0.0578,
新宿 (Shinjuku),2011-07-14,11:00～11:59,0.0609,0.0555,0.0580,
新宿 (Shinjuku),2011-07-14,10:00～10:59,0.0603,0.0537,0.0572,
新宿 (Shinjuku),2011-07-14,09:00～09:59,0.0614,0.0558,0.0584,
新宿 (Shinjuku),2011-07-14,08:00～08:59,0.0606,0.0548,0.0582,
新宿 (Shinjuku),2011-07-14,07:00～07:59,0.0608,0.0550,0.0580,
新宿 (Shinjuku),2011-07-14,06:00～06:59,0.0606,0.0554,0.0580,
新宿 (Shinjuku),2011-07-14,05:00～05:59,0.0602,0.0544,0.0572,
新宿 (Shinjuku),2011-07-14,04:00～04:59,0.0596,0.0541,0.0571,
新宿 (Shinjuku),2011-07-14,03:00～03:59,0.0596,0.0551,0.0570,
新宿 (Shinjuku),2011-07-14,02:00～02:59,0.0594,0.0538,0.0571,
新宿 (Shinjuku),2011-07-14,01:00～01:59,0.0603,0.0549,0.0576,
新宿 (Shinjuku),2011-07-14,00:00～00:59,0.0602,0.0548,0.0572,
新宿 (Shinjuku),2011-07-13,23:00～23:59,0.0598,0.0536,0.0572,
新宿 (Shinjuku),2011-07-13,22:00～22:59,0.0598,0.0553,0.0572,
新宿 (Shinjuku),2011-07-13,21:00～21:59,0.0593,0.0547,0.0569,
新宿 (Shinjuku),2011-07-13,20:00～20:59,0.0596,0.0542,0.0570,
新宿 (Shinjuku),2011-07-13,19:00～19:59,0.0594,0.0528,0.0569,
新宿 (Shinjuku),2011-07-13,18:00～18:59,0.0585,0.0534,0.0568,
新宿 (Shinjuku),2011-07-13,17:00～17:59,0.0601,0.0542,0.0572,
新宿 (Shinjuku),2011-07-13,16:00～16:59,0.0614,0.0551,0.0575,
新宿 (Shinjuku),2011-07-13,15:00～15:59,0.0600,0.0541,0.0575,
新宿 (Shinjuku),2011-07-13,14:00～14:59,0.0601,0.0550,0.0576,
新宿 (Shinjuku),2011-07-13,13:00～13:59,0.0606,0.0523,0.0573,
新宿 (Shinjuku),2011-07-13,12:00～12:59,0.0609,0.0549,0.0580,
新宿 (Shinjuku),2011-07-13,11:00～11:59,0.0607,0.0558,0.0580,
新宿 (Shinjuku),2011-07-13,10:00～10:59,0.0603,0.0559,0.0579,
新宿 (Shinjuku),2011-07-13,09:00～09:59,0.0611,0.0550,0.0577,
新宿 (Shinjuku),2011-07-13,08:00～08:59,0.0607,0.0544,0.0577,
新宿 (Shinjuku),2011-07-13,07:00～07:59,0.0606,0.0556,0.0579,
新宿 (Shinjuku),2011-07-13,06:00～06:59,0.0601,0.0554,0.0577,
新宿 (Shinjuku),2011-07-13,05:00～05:59,0.0608,0.0551,0.0573,
新宿 (Shinjuku),2011-07-13,04:00～04:59,0.0595,0.0536,0.0569,
新宿 (Shinjuku),2011-07-13,03:00～03:59,0.0596,0.0555,0.0573,
新宿 (Shinjuku),2011-07-13,02:00～02:59,0.0596,0.0541,0.0574,
新宿 (Shinjuku),2011-07-13,01:00～01:59,0.0600,0.0549,0.0573,
新宿 (Shinjuku),2011-07-13,00:00～00:59,0.0599,0.0537,0.0571,
新宿 (Shinjuku),2011-07-12,23:00～23:59,0.0597,0.0534,0.0570,
新宿 (Shinjuku),2011-07-12,22:00～22:59,0.0596,0.0548,0.0573,
新宿 (Shinjuku),2011-07-12,21:00～21:59,0.0606,0.0546,0.0570,
新宿 (Shinjuku),2011-07-12,20:00～20:59,0.0608,0.0537,0.0569,
新宿 (Shinjuku),2011-07-12,19:00～19:59,0.0593,0.0547,0.0570,
新宿 (Shinjuku),2011-07-12,18:00～18:59,0.0603,0.0530,0.0566,
新宿 (Shinjuku),2011-07-12,17:00～17:59,0.0603,0.0541,0.0574,
新宿 (Shinjuku),2011-07-12,16:00～16:59,0.0611,0.0541,0.0575,
新宿 (Shinjuku),2011-07-12,15:00～15:59,0.0600,0.0555,0.0574,
新宿 (Shinjuku),2011-07-12,14:00～14:59,0.0597,0.0552,0.0574,
新宿 (Shinjuku),2011-07-12,13:00～13:59,0.0596,0.0544,0.0573,
新宿 (Shinjuku),2011-07-12,12:00～12:59,0.0604,0.0549,0.0574,
新宿 (Shinjuku),2011-07-12,11:00～11:59,0.0610,0.0551,0.0578,
新宿 (Shinjuku),2011-07-12,10:00～10:59,0.0614,0.0554,0.0583,
新宿 (Shinjuku),2011-07-12,09:00～09:59,0.0606,0.0547,0.0578,
新宿 (Shinjuku),2011-07-12,08:00～08:59,0.0598,0.0551,0.0575,
新宿 (Shinjuku),2011-07-12,07:00～07:59,0.0603,0.0548,0.0579,
新宿 (Shinjuku),2011-07-12,06:00～06:59,0.0611,0.0555,0.0579,
新宿 (Shinjuku),2011-07-12,05:00～05:59,0.0599,0.0548,0.0574,
新宿 (Shinjuku),2011-07-12,04:00～04:59,0.0590,0.0539,0.0569,
新宿 (Shinjuku),2011-07-12,03:00～03:59,0.0596,0.0541,0.0570,
新宿 (Shinjuku),2011-07-12,02:00～02:59,0.0593,0.0557,0.0574,
新宿 (Shinjuku),2011-07-12,01:00～01:59,0.0604,0.0537,0.0571,
新宿 (Shinjuku),2011-07-12,00:00～00:59,0.0600,0.0538,0.0570,
新宿 (Shinjuku),2011-07-11,23:00～23:59,0.0587,0.0544,0.0569,
新宿 (Shinjuku),2011-07-11,22:00～22:59,0.0594,0.0544,0.0569,
新宿 (Shinjuku),2011-07-11,21:00～21:59,0.0601,0.0544,0.0568,
新宿 (Shinjuku),2011-07-11,20:00～20:59,0.0600,0.0550,0.0572,
新宿 (Shinjuku),2011-07-11,19:00～19:59,0.0593,0.0534,0.0571,
新宿 (Shinjuku),2011-07-11,18:00～18:59,0.0599,0.0536,0.0572,
新宿 (Shinjuku),2011-07-11,17:00～17:59,0.0605,0.0530,0.0571,
新宿 (Shinjuku),2011-07-11,16:00～16:59,0.0600,0.0537,0.0569,
新宿 (Shinjuku),2011-07-11,15:00～15:59,0.0603,0.0546,0.0574,
新宿 (Shinjuku),2011-07-11,14:00～14:59,0.0610,0.0549,0.0574,
新宿 (Shinjuku),2011-07-11,13:00～13:59,,,点検中,
新宿 (Shinjuku),2011-07-11,12:00～12:59,,,点検中,
新宿 (Shinjuku),2011-07-11,11:00～11:59,,,点検中,
新宿 (Shinjuku),2011-07-11,10:00～10:59,,,点検中,
新宿 (Shinjuku),2011-07-11,09:00～09:59,0.0619,0.0548,0.0582,
新宿 (Shinjuku),2011-07-11,08:00～08:59,0.0608,0.0566,0.0585,
新宿 (Shinjuku),2011-07-11,07:00～07:59,0.0613,0.0558,0.0588,
新宿 (Shinjuku),2011-07-11,06:00～06:59,0.0608,0.0551,0.0583,
新宿 (Shinjuku),2011-07-11,05:00～05:59,0.0608,0.0557,0.0580,
新宿 (Shinjuku),2011-07-11,04:00～04:59,0.0606,0.0557,0.0578,
新宿 (Shinjuku),2011-07-11,03:00～03:59,0.0613,0.0555,0.0579,
新宿 (Shinjuku),2011-07-11,02:00～02:59,0.0601,0.0562,0.0581,
新宿 (Shinjuku),2011-07-11,01:00～01:59,0.0610,0.0554,0.0578,
新宿 (Shinjuku),2011-07-11,00:00～00:59,0.0611,0.0546,0.0575,
